Miscellaneous Local Product
Issued by NWS North Platte, NE

Home | Current Version | Previous Version | Text Only | Print | Product List | Glossary On
Versions: 1 2 3 4 5 6 7 8 9 10 11 12 13 14 15 16 17 18 19 20 21 22 23 24 25 26 27 28 29 30 31 32 33 34 35 36 37 38 39 40 41 42 43 44 45 46 47 48 49 50
000
AXUS43 KLBF 030610
MISLBF


WESTERN AND NORTH CENTRAL NEBRASKA HOURLY WEATHER ROUNDUP
NATIONAL WEATHER SERVICE NORTH PLATTE NE
100 AM CDT WED JUN 03 2015

***STATIONS NOT REPORTING VARIABLES SUCH AS SKY/WEATHER OR
PRESSURE ARE PROVIDED BY THE NEBRASKA DEPARTMENT OF
ROADS...RAWS...AND APRS NETWORKS...AND ARE NOT UNDER
NATIONAL WEATHER SERVICE QUALITY CONTROL***

...OBSERVATIONS IN AND NEAR THE EASTERN PANHANDLE OF NEBRASKA...

CITY           SKY/WX    TMP DP  RH WIND       PRES   REMARKS
PINE RIDGE     MOCLDY    62  54  74 N15       29.93S
CHADRON        MOCLDY    60  56  86 NE13      29.94R
ALLIANCE       MOCLDY    58  53  84 N6        29.87F
SIDNEY         PTCLDY    63  56  78 N8        29.88R
WHITECLAY        N/A     57  53  88 E7          N/A
CRESCENT LAKE    N/A     61  54  78 NE12G20     N/A
BIG SPRINGS      N/A     67  63  88 E3          N/A
$$

...OBSERVATIONS IN NORTH CENTRAL NEBRASKA...

CITY           SKY/WX    TMP DP  RH WIND       PRES   REMARKS
VALENTINE      CLOUDY    66  53  63 CALM      29.78R
THEDFORD       CLOUDY    60  58  94 E6        29.87F
AINSWORTH      CLOUDY    64  58  80 S8        29.85R
O`NEILL        TSTM      63  62  97 NW9       29.90R
ORD            TSTM      60  58  92 W12       29.95R FOG
BROKEN BOW     TSTM      61  58  90 N20       29.87F FOG
BROWNLEE         N/A     64  60  87 E9          N/A
VALENTINE NWR    N/A     64  56  77 E10G26      N/A
SPRINGVIEW       N/A     63  58  84 W8G20       N/A
HALSEY           N/A     58  57  97 SE7         N/A
NEWPORT          N/A     64  62  94 E6          N/A
SARGENT          N/A     59  58  95 CALM        N/A
CHAMBERS         N/A     61  59  92 W3          N/A
EWING            N/A     67  60  79 W15G24      N/A
$$

...OBSERVATIONS IN SOUTHWEST NEBRASKA AND FAR NORTHEAST COLORADO...

CITY           SKY/WX    TMP DP  RH WIND       PRES   REMARKS
WRAY           FAIR      72  58  62 E5        29.81R
IMPERIAL       PTCLDY    67  64  90 SE8       29.78F
OGALLALA       CLOUDY    69  56  62 E13       29.81F
NORTH PLATTE   CLOUDY    64  53  67 NE14      29.83F
MCCOOK         CLEAR     71  65  81 SE6       29.76F
LEXINGTON      CLOUDY    70  56  62 NE18G33   29.86R
PAXTON           N/A     64  55  74 NE6         N/A
GOTHENBURG       N/A     65  51  60 N10         N/A
CALLAWAY         N/A     59  57  94 E5          N/A
$$

...NORTH PLATTE AREA...

CITY           SKY/WX    TMP DP  RH WIND       PRES   REMARKS
AIRPORT        CLOUDY    64  53  67 NE14      29.83F
$$

...SOME WEATHER OBSERVATIONS FROM AROUND THE REGION...

CITY           SKY/WX    TMP DP  RH WIND       PRES   REMARKS
DENVER         PTCLDY    68  42  38 NW12      29.92R
LARAMIE        CLEAR     49  34  56 W8        30.07F
CHEYENNE       CLEAR     56  48  74 NW6       29.99S
SCOTTSBLUFF    PTCLDY    61  51  70 VRB3      29.89S
RAPID CITY     MOCLDY    57  52  83 N9        29.93R
PIERRE         LGT RAIN  68  62  81 E5        29.80R
WINNER         LGT RAIN  65  58  78 W14       29.82F
SIOUX FALLS    CLOUDY    67  59  75 S15G23    29.83F
OMAHA          PTCLDY    64  58  80 SE10      29.90F
GRAND ISLAND   CLOUDY    68  65  90 SE13      29.84S
KANSAS CITY    MOCLDY    66  59  78 SE14      29.95F
WICHITA        PTCLDY    74  67  78 S15       29.87F
HAYS           CLEAR     73  61  64 S16G22    29.81S
LIBERAL        CLEAR     72  61  68 S15       29.87R
GOODLAND       CLEAR     67  60  78 S14       29.81S
$$



USA.gov is the U.S. government's official web portal to all federal, state and local government web resources and services.